Weather History for KSAW - May, 2013

Change the Weather History Date:

Wednesday, May 22, 2013

  Actual Average (KESC) Record (KESC)
Temperature  
Mean Temperature 44 °F -  
Max Temperature 46 °F 62 °F 84 °F (1956)
Min Temperature 41 °F 45 °F 28 °F (1963)
Degree Days  
Heating Degree Days 22    
Moisture  
Dew Point 42 °F    
Average Humidity 95    
Maximum Humidity 100    
Minimum Humidity 89    
Precipitation  
Precipitation 0.04 in - - ()
Sea Level Pressure  
Sea Level Pressure 29.78 in    
Wind  
Wind Speed 9 mph (NNE)    
Max Wind Speed 21 mph    
Max Gust Speed 28 mph    
Visibility 3 miles    
Events Fog , Rain    
Averages and records for this station are not official NWS values.
T = Trace of Precipitation, MM = Missing Value Source: NWS Daily Summary

Daily Weather History Graph

Daily Weather History Graph

Search for Another Location

Airport or City:

Trip Planner

Search our weather history database for the weather conditions in past years. The results will help you decide how hot, cold, wet, or windy it might be!

Date:

Astronomy

May. 22, 2013 Rise Set
Actual Time 6:08 AM EDT 9:24 PM EDT
Civil Twilight 5:32 AM EDT 10:01 PM EDT
Nautical Twilight 4:44 AM EDT 10:49 PM EDT
Astronomical Twilight 3:45 AM EDT 11:49 PM EDT
Moon 6:38 PM EDT (5/22) 4:22 AM EDT (5/22)
Length of Visible Light 16h 29m
Length of Day
15h 16m
Waxing Gibbous, 91% of the Moon is Illuminated
May 22
Waxing Gibbous
May 25
Full
May 31
Last Quarter
Jun 8
New
Jun 16
First Quarter

Hourly Weather History & Observations

Time (EDT) Temp. Windchill Dew Point Humidity Pressure Visibility Wind Dir Wind Speed Gust Speed Precip Events Conditions
12:16 AM 43.9 °F 40.5 °F 43.0 °F 97% 29.72 in 0.2 mi NE 5.8 mph - N/A Fog Fog
12:37 AM 43.7 °F 41.1 °F 42.8 °F 97% 29.73 in 0.2 mi NE 4.6 mph - N/A Fog Fog
12:57 AM 43.7 °F 39.7 °F 42.8 °F 97% 29.73 in 0.5 mi NE 6.9 mph - 0.01 in Fog Fog
1:16 AM 43.7 °F 41.1 °F 42.8 °F 97% 29.73 in 0.5 mi NNE 4.6 mph - N/A Fog Fog
1:37 AM 43.7 °F 40.3 °F 43.0 °F 97% 29.73 in 0.5 mi NNE 5.8 mph - N/A Fog Fog
1:56 AM 43.7 °F 40.3 °F 43.0 °F 97% 29.73 in 0.5 mi NNE 5.8 mph - N/A Fog Fog
2:17 AM 43.9 °F 39.9 °F 43.2 °F 97% 29.72 in 0.5 mi NE 6.9 mph - N/A Fog Fog
2:37 AM 43.9 °F 39.9 °F 43.2 °F 97% 29.72 in 0.5 mi NNE 6.9 mph - N/A Fog Fog
2:57 AM 43.7 °F 39.1 °F 42.8 °F 97% 29.72 in 0.5 mi NNE 8.1 mph - N/A Fog Fog
3:17 AM 43.3 °F 38.6 °F 42.8 °F 98% 29.73 in 0.5 mi North 8.1 mph - N/A Fog Fog
3:36 AM 43.2 °F 38.4 °F 42.4 °F 97% 29.74 in 1.0 mi NNE 8.1 mph - N/A   Overcast
3:57 AM 43.2 °F 40.5 °F 42.4 °F 97% 29.74 in 1.8 mi North 4.6 mph - N/A   Overcast
4:17 AM 42.8 °F 35.8 °F 42.1 °F 97% 29.72 in 4.0 mi North 13.8 mph - N/A   Overcast
4:37 AM 42.4 °F 36.1 °F 41.9 °F 98% 29.72 in 2.5 mi North 11.5 mph - N/A   Overcast
4:57 AM 42.3 °F 38.6 °F 41.5 °F 97% 29.74 in 5.0 mi North 5.8 mph - N/A   Overcast
5:16 AM 42.3 °F - 41.5 °F 97% 29.74 in 3.0 mi Calm Calm - N/A   Overcast
5:37 AM 42.3 °F - 41.5 °F 97% 29.74 in 1.5 mi Calm Calm - N/A   Overcast
5:57 AM 42.3 °F 38.6 °F 41.5 °F 97% 29.74 in 2.5 mi North 5.8 mph - N/A   Overcast
6:50 AM 42.8 °F 38.0 °F 41.0 °F 93% 29.74 in 3.0 mi North 8.1 mph - N/A   Overcast
7:50 AM 42.8 °F 39.3 °F 41.0 °F 93% 29.76 in 2.0 mi NNE 5.8 mph - N/A   Overcast
8:50 AM 42.8 °F 38.0 °F 41.0 °F 93% 29.77 in 3.0 mi NNE 8.1 mph - N/A   Overcast
9:50 AM 42.8 °F 36.2 °F 42.8 °F 100% 29.76 in 1.5 mi North 12.7 mph - N/A   Overcast
10:50 AM 42.8 °F 36.2 °F 42.8 °F 100% 29.76 in 1.8 mi North 12.7 mph 18.4 mph N/A   Overcast
11:50 AM 44.6 °F 38.1 °F 42.8 °F 93% 29.78 in 0.8 mi NNE 13.8 mph 17.3 mph N/A   Overcast
12:50 PM 42.8 °F 35.4 °F 42.8 °F 100% 29.78 in 0.8 mi NNE 15.0 mph - N/A   Overcast
1:50 PM 42.8 °F 35.8 °F 41.0 °F 93% 29.79 in 1.0 mi North 13.8 mph - N/A   Overcast
2:50 PM 42.8 °F 36.2 °F 42.8 °F 100% 29.78 in 1.0 mi NNE 12.7 mph 18.4 mph N/A   Overcast
3:50 PM 44.6 °F 37.4 °F 42.8 °F 93% 29.79 in 1.2 mi NNE 16.1 mph - N/A   Overcast
4:50 PM 44.6 °F 37.8 °F 44.6 °F 100% 29.79 in 1.8 mi NNE 15.0 mph - N/A   Overcast
5:50 PM 44.6 °F 37.4 °F 42.8 °F 93% 29.79 in 1.5 mi NNE 16.1 mph 23.0 mph N/A Rain Light Rain
6:50 PM 46.4 °F 39.8 °F 44.6 °F 93% 29.82 in 1.8 mi NNE 16.1 mph - N/A Rain Rain
7:50 PM 46.4 °F 39.2 °F 46.4 °F 100% 29.82 in 2.5 mi NE 18.4 mph 27.6 mph N/A Rain Light Rain
8:50 PM 46.4 °F 39.2 °F 44.6 °F 93% 29.85 in 7.0 mi NE 18.4 mph 24.2 mph N/A Rain Light Rain
9:45 PM 46.4 °F 40.7 °F 44.6 °F 93% 29.87 in 10.0 mi NNE 12.7 mph - N/A   Overcast
10:17 PM 45.0 °F 37.6 °F 42.4 °F 91% 29.89 in 10.0 mi North 17.3 mph - N/A Rain Light Rain
10:37 PM 43.7 °F 35.7 °F 41.4 °F 91% 29.90 in 7.0 mi North 18.4 mph 23.0 mph 0.01 in Rain Light Rain
10:57 PM 42.6 °F 34.9 °F 39.9 °F 90% 29.91 in 7.0 mi NNE 16.1 mph - 0.01 in   Overcast
11:17 PM 41.9 °F 32.8 °F 39.2 °F 90% 29.92 in 10.0 mi North 20.7 mph 27.6 mph 0.01 in Rain Light Rain
11:36 PM 41.4 °F 32.4 °F 38.3 °F 89% 29.93 in 10.0 mi NNE 19.6 mph 26.5 mph 0.01 in   Overcast
11:57 PM 41.4 °F 33.3 °F 38.3 °F 89% 29.94 in 10.0 mi North 16.1 mph 24.2 mph 0.02 in   Overcast